Starlink 34174

operational
NORAD ID: 64097 Int'l Des: 2025-110 Owner: SPXS Country: US Constellation: starlink
LEOCIRCULAR

About Starlink 34174

Description loading...

Live Position

Loading 3D Globe...

Upcoming Passes

Altitude History

Altitude vs Time

uPlot chart will show altitude changes over time

Two-Line Element Set

1 64097U 25110B 26095.16370954 .00025851 00000-0 88215-3 0 9990
2 64097 53.1569 263.9469 0000835 69.2746 290.8344 15.30191344 49932
Epoch: Apr 5, 2026 • Age: 10 hours

Current Status

Altitude 481.0 km
Velocity 7.63 km/s
Sub-Earth Point 52.09°N, 31.48°W
Launch Date May 23, 2025
Age 0.8 years
Type internet

Technical Details

Classification Payload
Mass 575.00 kg
Dry Mass 530.00 kg
Total Mass 575.00 kg
Length 0.30 m
Diameter 4.10 m
Span 29.00 m
Shape Box + pan
Manufacturer SPXS
Bus Type Starlink V2MO
Phase Status In Orbit
Owner/State SPXS/US

Large Constellations

Loading constellations...